Dewpoint
50 43 30 26 14 9 3 2 13 15 16 19 20 26 26 28 28 21 51 60 64 64 65 67 68 70 69 70 71 72 71 71 71 71 71 71 71 71 70 70 70 70 69 69 69 69 69 68 69
40 32 24 21 6 0 -1 5 14 13 18 23 24 27 26 23 37 42 54 60 63 63 65 66 68 70 69 70 71 72 72 71 71 71 71 71 71 71 70 70 70 69 69 69 69 69 69 69 69
38 28 17 11 6 -1 -3 3 10 19 21 20 25 30 27 26 41 42 52 60 62 62 64 66 68 70 69 69 70 71 72 72 71 71 71 71 71 70 70 69 68 68 68 68 67 68 68 69 68
30 22 19 9 1 6 6 8 16 20 21 20 19 20 35 44 43 46 55 60 60 62 63 68 69 69 69 69 69 71 71 70 71 71 71 71 70 68 67 66 65 65 66 66 68 68 69 68 68
28 19 8 7 1 2 13 17 22 21 19 19 19 19 30 47 52 53 56 61 61 63 64 68 69 69 70 69 69 70 70 69 69 70 71 70 68 66 64 64 64 64 64 65 66 67 67 67 67
19 19 6 -1 0 6 13 11 20 20 16 17 19 20 25 48 54 55 58 61 64 66 67 67 69 69 69 69 69 69 69 70 68 70 69 66 66 66 66 64 63 62 63 63 65 64 66 67 66
20 13 3 -1 -2 1 8 12 13 11 12 17 21 21 25 45 53 58 60 61 65 67 68 68 68 69 69 68 69 69 69 69 69 69 67 65 67 66 65 65 65 63 64 63 66 66 66 66 65
20 13 8 2 5 3 9 14 13 11 14 26 26 21 24 46 57 61 60 62 65 67 67 67 67 68 68 68 68 68 68 68 68 67 67 66 66 66 66 66 65 65 64 63 64 66 65 65 64
24 15 9 6 8 5 16 16 18 19 19 21 24 27 42 51 58 60 59 60 62 65 65 67 66 67 67 67 68 68 68 68 67 67 66 65 64 64 64 62 65 65 64 64 64 64 62 64 63
23 18 14 12 12 11 13 14 16 17 15 19 20 39 45 49 55 57 58 57 60 63 64 65 66 65 67 66 68 68 68 68 67 65 64 63 62 62 60 61 65 64 64 63 61 60 63 63 62
23 18 18 18 18 15 13 12 15 14 9 15 16 21 21 35 44 51 55 53 56 60 63 64 65 66 65 64 67 68 68 68 67 67 65 65 64 63 61 61 62 61 63 63 60 62 63 62 62
23 21 21 18 19 16 16 15 14 15 15 13 16 18 20 21 31 42 48 53 55 58 62 65 65 65 66 63 66 66 66 67 66 66 66 66 65 65 64 63 61 62 61 62 62 63 62 62 61
25 23 21 22 20 18 18 17 16 16 17 18 18 19 22 20 23 32 41 47 53 58 61 65 65 64 64 64 63 65 65 65 65 65 65 65 64 63 62 62 62 61 64 63 63 63 62 62 61
24 25 23 22 21 21 20 20 20 21 23 22 23 23 20 20 22 27 35 44 50 55 58 63 64 64 63 62 62 61 63 64 64 64 64 64 64 63 63 62 62 63 63 63 63 62 62 61 60
21 19 19 20 22 22 23 21 21 23 23 22 21 21 21 19 20 26 33 40 47 52 57 61 63 64 63 62 62 61 59 63 64 64 64 64 63 63 62 62 62 62 63 61 61 61 61 60 59
20 21 20 22 22 21 20 18 20 22 23 24 24 23 24 23 20 24 32 39 43 48 54 59 62 62 63 62 62 60 59 62 62 63 63 63 63 62 61 61 61 61 62 61 59 59 59 60 58
22 20 22 22 25 23 21 18 20 21 21 20 22 23 24 24 25 26 29 37 43 47 52 57 61 62 63 63 62 61 62 62 62 62 62 62 61 61 61 61 61 62 59 60 59 58 58 58 56
18 18 20 21 22 23 22 21 22 23 24 24 24 26 27 27 27 27 29 31 37 46 52 56 59 61 62 62 62 60 62 61 61 62 62 62 61 61 61 61 60 59 57 57 58 57 57 58 56
16 14 15 17 22 24 21 21 22 23 25 26 26 27 26 26 27 27 28 33 35 42 51 55 57 60 61 62 61 60 60 60 61 62 61 61 62 61 61 61 59 58 56 56 56 56 56 56 56
14 13 14 15 18 19 18 17 18 20 21 23 24 25 26 27 28 28 29 31 34 38 49 54 56 59 61 60 59 59 60 60 60 60 61 61 62 62 61 60 60 58 57 56 56 56 55 55 56
14 13 14 15 16 16 16 15 14 16 18 19 21 22 23 24 25 27 29 30 32 38 46 52 54 57 59 58 58 58 59 59 59 59 59 61 61 62 61 60 59 59 57 56 56 56 56 54 55
12 16 17 15 13 11 24 7 13 15 17 19 22 24 24 25 27 27 27 29 31 36 44 50 53 56 59 59 58 57 56 56 56 57 57 59 60 61 61 61 60 58 57 56 56 56 56 54 52
15 20 16 16 17 20 19 19 13 16 14 25 34 37 38 40 39 35 32 30 31 33 44 50 53 55 58 59 58 57 55 55 55 56 57 57 57 59 60 60 60 59 58 57 56 56 56 55 53
28 27 28 27 23 20 17 17 11 18 24 30 37 38 40 41 42 42 38 35 33 32 43 52 53 55 57 59 58 57 56 55 54 55 54 55 55 55 56 58 59 59 58 57 56 54 55 54 54
28 25 21 22 23 15 19 19 15 27 37 37 37 38 41 43 44 44 42 38 34 36 49 53 54 55 58 58 57 57 57 56 55 54 53 53 53 54 55 57 59 58 58 57 56 55 55 55 54
27 22 17 9 13 14 25 19 22 37 39 38 38 39 42 43 47 48 45 42 37 44 52 54 54 54 57 57 57 57 56 56 54 54 52 53 53 54 55 56 58 58 58 57 56 55 55 55 54
27 27 28 26 26 22 15 20 27 34 35 37 37 40 42 44 47 50 49 45 40 47 52 54 54 55 56 56 56 56 57 55 54 53 54 53 54 54 56 57 58 58 57 57 57 56 55 54 54
28 30 26 26 21 17 16 19 22 32 35 36 37 38 42 45 46 48 52 47 41 49 54 56 56 56 55 56 56 57 56 56 54 54 54 54 55 55 56 57 57 57 56 56 56 55 55 54 54
30 28 29 28 28 21 17 23 35 32 32 35 36 39 43 45 44 45 50 52 48 51 54 56 56 55 55 55 56 56 56 55 54 54 54 54 55 55 55 55 56 55 55 55 55 54 53 53 53
28 27 27 24 25 26 26 20 35 30 30 35 37 42 42 42 42 42 46 51 52 52 54 55 55 55 55 55 56 56 56 55 54 54 54 54 53 54 55 55 55 54 54 55 55 54 53 52 52
Wind_Speed
10 8 5 7 9 8 14 9 3 7 5 5 6 7 10 7 3 3 4 11 9 14 14 17 15 13 13 13 12 12 16 19 20 20 20 19 19 18 16 15 15 19 20 19 19 19 20 20 18
11 7 6 3 10 16 15 9 10 9 5 3 6 7 6 6 1 3 11 11 12 14 14 16 17 15 14 14 13 13 16 17 18 19 19 20 19 18 17 15 15 18 20 19 18 19 21 20 19
11 8 8 7 14 23 12 8 6 3 3 7 7 6 3 2 4 8 6 15 14 14 14 14 18 16 15 15 15 15 15 16 17 19 21 21 21 21 19 18 14 17 17 18 18 19 19 18 19
11 7 5 14 20 13 12 4 6 4 3 7 7 7 3 2 6 11 12 16 15 13 14 17 20 17 15 15 14 14 14 16 17 18 21 22 21 21 19 17 16 14 16 17 16 18 19 18 19
9 6 16 19 27 21 12 6 7 3 1 3 6 10 4 5 6 8 15 16 16 13 13 15 17 16 15 14 13 12 14 15 17 18 20 21 23 23 23 14 18 17 11 14 15 19 22 20 19
12 8 17 26 25 12 15 13 12 13 9 8 9 13 9 4 10 11 13 16 13 14 12 14 17 16 17 16 14 13 13 15 17 19 23 24 22 19 21 26 21 21 13 14 17 20 22 20 18
21 17 27 25 23 17 12 12 14 14 10 8 6 9 7 7 9 11 13 14 13 13 13 13 15 15 13 15 15 15 14 15 17 18 17 17 24 21 21 21 19 15 19 20 23 23 22 18 16
16 17 28 25 23 27 15 10 9 13 7 3 3 6 10 4 6 10 13 14 14 13 13 13 14 15 15 14 14 16 16 16 17 15 14 20 21 19 16 18 19 21 22 23 24 23 26 25 18
11 19 28 24 20 17 6 11 9 3 6 4 2 4 5 6 8 12 14 15 15 14 14 14 14 14 14 13 14 14 15 17 16 14 15 19 19 17 17 18 18 20 20 21 23 21 21 15 20
20 25 31 20 17 9 9 10 8 8 13 11 8 5 1 2 5 15 16 19 19 18 17 15 15 14 13 12 11 15 15 16 15 16 16 16 17 17 17 18 15 15 17 18 22 21 21 20 18
18 37 20 15 18 22 19 18 15 16 17 15 12 7 8 6 7 13 19 20 19 15 14 16 16 15 15 13 10 8 8 11 13 13 15 17 15 14 15 16 14 16 12 14 15 16 16 19 19
21 25 26 19 19 19 20 19 21 18 22 19 16 15 14 15 13 14 17 20 19 18 17 17 16 16 16 12 12 11 9 10 12 13 12 12 13 14 13 12 14 12 13 15 14 18 21 25 23
29 25 19 19 24 24 22 26 26 26 17 24 19 17 18 18 17 16 17 17 20 21 20 21 18 17 16 15 13 12 11 11 13 15 15 12 15 15 13 12 10 13 11 14 15 17 19 21 21
10 26 25 22 20 22 24 27 24 17 19 27 20 18 20 18 20 17 16 19 22 23 22 21 21 19 18 17 15 13 14 13 12 14 15 15 13 12 12 11 13 12 12 15 17 18 15 19 20
21 23 20 20 16 15 11 29 31 24 24 28 26 23 24 22 22 20 21 20 22 21 21 23 22 20 19 18 16 14 12 12 12 13 14 17 13 14 11 12 14 16 13 14 15 17 14 11 18
20 22 26 22 23 26 23 35 12 1 10 15 15 13 16 20 23 21 20 20 18 19 22 23 21 21 20 18 16 15 13 13 13 13 14 15 16 16 14 13 14 14 13 18 15 19 18 16 18
17 21 20 17 14 15 25 23 19 6 12 16 13 14 12 13 14 18 18 18 17 18 20 23 24 24 22 18 16 14 12 12 12 13 13 16 17 17 15 12 10 15 15 18 21 19 19 14 17
19 18 21 19 16 19 22 25 18 15 14 15 14 13 15 16 17 17 15 14 14 15 18 21 23 23 21 16 16 15 12 12 12 12 14 16 16 16 14 11 9 10 14 13 16 23 16 14 17
20 19 19 11 6 14 21 24 22 20 19 21 20 23 25 27 25 24 21 17 14 14 19 23 24 25 21 19 19 16 14 13 13 12 13 15 15 15 14 12 13 12 14 16 15 17 23 13 11
22 19 18 15 13 17 23 27 24 24 26 27 30 31 30 28 27 27 26 23 18 18 19 22 27 28 27 24 22 15 16 13 14 12 13 15 16 17 17 16 15 14 12 18 21 15 16 9 12
24 23 17 15 13 18 22 27 23 14 23 28 29 28 27 27 28 28 29 29 24 21 21 24 27 28 26 25 21 15 15 9 10 14 11 13 15 18 17 17 15 15 14 16 17 22 21 16 15
23 18 17 14 10 9 1 8 12 8 5 7 7 11 14 16 19 24 26 27 26 24 21 23 25 28 27 27 25 25 22 17 17 16 13 13 13 13 16 16 18 20 16 16 20 20 20 18 22
17 6 12 12 12 12 15 9 2 7 9 2 10 11 11 13 16 20 23 24 26 24 19 21 24 28 28 29 26 24 20 15 13 14 15 16 17 18 17 16 22 20 19 20 20 20 22 20 21
11 11 6 5 6 10 17 14 5 2 6 8 8 11 12 14 15 14 16 20 23 24 18 21 26 30 30 29 28 26 22 17 15 16 16 15 13 15 17 18 16 20 19 20 22 22 24 21 22
12 14 7 6 7 8 3 9 12 3 2 5 11 14 14 17 18 16 15 14 21 22 22 22 27 30 28 29 30 26 22 19 16 15 14 14 13 14 16 17 19 18 18 18 18 19 21 20 22
17 16 6 8 7 6 6 8 5 4 1 6 10 13 17 21 21 22 18 13 16 18 21 24 28 29 27 28 29 24 22 17 14 14 12 12 11 11 11 15 17 19 19 17 17 18 19 21 18
12 11 2 3 1 3 6 6 8 3 5 6 12 18 22 25 22 27 20 14 12 15 18 21 23 24 23 25 24 24 21 17 15 14 12 10 10 9 9 12 16 17 19 20 16 18 20 18 20
6 11 5 5 5 6 5 5 4 9 15 14 17 20 24 24 25 27 22 16 9 12 15 18 18 19 20 21 22 22 20 18 15 14 14 14 12 10 10 9 10 13 13 12 15 14 16 17 17
8 6 2 1 2 2 2 5 6 11 16 18 19 17 19 20 25 26 27 14 1 7 13 16 17 18 21 20 21 21 20 18 16 15 15 14 14 12 11 11 12 12 13 13 13 13 14 15 15
4 7 5 5 5 3 0 4 4 13 18 17 18 16 16 16 23 27 25 20 5 6 11 14 15 16 17 18 18 19 19 18 17 15 15 15 15 14 12 11 11 12 14 15 16 15 16 17 18
Wind_Direction
191 201 214 217 239 233 246 233 251 181 194 182 192 191 206 331 221 341 114 142 144 150 155 168 171 164 155 152 150 151 157 160 161 162 161 154 151 148 142 142 149 145 145 150 149 146 143 137 131
182 175 205 224 246 232 235 219 217 214 123 130 183 208 221 214 221 113 140 156 154 155 159 169 171 166 160 151 152 153 158 162 160 160 156 151 151 145 140 144 154 152 149 151 152 149 141 137 130
168 207 225 227 236 243 254 197 229 177 207 215 204 235 215 196 168 163 107 154 157 160 162 160 167 168 168 164 158 160 160 158 160 159 156 153 151 154 143 144 156 162 154 158 156 149 142 135 131
168 188 226 236 235 238 268 277 161 146 147 194 235 214 204 217 159 173 155 157 163 162 166 149 168 169 170 169 167 166 163 163 162 162 159 156 156 154 145 157 157 176 172 165 154 146 139 136 133
202 230 236 234 243 245 245 261 204 208 291 234 223 228 225 197 166 171 166 166 169 166 167 164 168 168 168 171 173 171 163 168 174 170 163 157 161 150 143 166 160 161 187 176 166 156 147 142 141
203 247 233 236 241 222 241 251 242 255 269 264 250 250 250 136 183 174 172 177 174 170 165 164 174 176 174 172 176 178 172 172 181 181 180 179 165 163 162 155 165 161 182 186 185 173 157 147 147
240 221 242 247 252 240 239 246 236 243 263 254 262 244 242 204 187 172 176 176 175 170 166 167 177 184 186 181 180 184 182 185 190 194 199 184 162 169 168 173 179 175 181 189 170 162 152 151 147
239 250 252 242 245 249 207 228 243 233 199 157 227 230 246 18 199 182 172 175 175 175 173 173 176 183 191 193 192 188 187 194 199 198 178 156 158 167 180 177 181 183 186 181 177 166 160 152 151
221 238 244 234 237 243 195 211 192 200 217 171 202 288 5 337 188 193 181 185 186 189 183 181 182 184 194 197 191 196 193 194 201 193 181 170 184 185 182 190 189 174 179 183 176 174 162 148 153
208 228 242 254 245 238 216 241 204 221 215 226 221 160 131 341 210 207 206 201 202 199 194 188 190 190 190 194 188 201 203 199 198 200 195 199 202 197 197 193 181 178 190 189 187 177 153 164 166
220 234 243 244 248 255 257 249 243 242 244 232 249 267 286 295 258 236 223 221 215 212 210 200 192 194 196 194 187 186 188 187 195 188 199 198 199 193 199 193 192 192 203 203 190 152 171 187 181
239 232 240 242 244 249 253 259 254 252 253 261 260 267 275 273 263 245 238 227 222 215 208 213 200 193 198 194 195 193 178 186 186 179 168 179 188 182 185 192 193 197 206 212 187 169 186 193 179
231 245 221 244 244 255 266 262 263 256 252 256 258 257 256 260 258 249 243 236 224 219 211 208 198 198 195 195 196 187 190 199 191 181 177 196 198 195 189 200 211 221 222 178 165 167 184 184 176
226 235 246 236 243 255 259 261 254 246 241 249 249 249 249 245 247 252 241 237 226 219 213 204 200 203 197 199 199 194 189 203 186 184 186 185 205 190 200 210 221 225 221 180 171 167 176 181 178
247 250 246 236 232 233 257 261 251 249 244 247 253 247 246 247 247 246 243 239 233 224 213 207 200 199 202 199 197 199 195 189 190 176 185 194 199 208 202 217 222 230 201 163 173 153 157 185 175
226 235 248 239 232 241 230 259 242 169 226 231 237 239 244 243 245 242 242 242 236 225 211 204 197 198 199 199 196 197 195 201 197 183 186 194 204 215 214 222 223 222 201 172 154 151 165 181 180
217 235 223 246 216 224 215 255 251 288 266 250 255 256 243 244 233 238 242 242 238 226 213 205 201 197 193 192 197 195 183 194 205 194 194 196 209 212 216 209 211 204 172 182 161 162 161 164 171
222 225 243 241 223 219 244 252 253 243 244 253 254 256 256 247 242 242 242 243 238 224 215 205 204 198 189 179 197 194 183 196 200 191 199 198 209 208 211 189 146 141 157 154 155 159 157 155 166
258 257 251 248 229 255 262 267 266 263 255 259 253 250 250 249 250 250 245 248 241 224 208 207 202 196 184 182 189 189 184 186 201 194 197 198 202 201 188 167 152 149 157 145 136 153 144 146 175
235 244 246 260 265 268 271 272 274 266 259 254 249 250 250 251 250 251 249 245 240 227 209 204 206 199 192 188 190 190 186 193 200 194 197 202 200 194 189 172 168 158 157 153 152 152 132 145 184
228 238 248 255 281 274 275 281 257 257 245 248 255 265 271 268 264 256 250 245 236 229 214 207 206 202 198 191 185 181 177 171 193 193 186 211 203 190 183 182 172 164 163 167 171 166 165 163 185
228 224 249 250 259 255 67 277 301 274 245 229 277 285 282 284 277 264 259 255 236 230 220 211 204 199 200 190 182 184 183 192 206 206 188 195 198 197 187 181 182 173 169 175 183 179 178 174 184
233 182 226 231 243 275 254 253 193 194 259 98 346 332 308 297 300 282 259 251 245 234 219 212 201 198 196 191 188 187 190 192 194 193 190 204 204 202 197 190 183 181 184 180 183 184 188 184 186
151 154 169 214 239 252 244 224 186 113 322 319 348 338 326 313 303 290 277 260 246 234 210 206 198 196 192 192 190 190 186 179 184 191 193 194 200 211 210 198 190 185 187 181 187 186 188 191 194
177 171 171 193 203 242 149 213 255 0 41 353 341 342 338 334 320 304 285 271 237 218 199 196 196 193 188 189 190 186 179 184 188 187 195 189 196 203 211 209 191 183 185 188 181 186 189 191 198
189 191 220 225 199 172 168 226 134 139 207 323 335 347 349 349 339 321 298 275 247 208 195 194 194 190 187 185 187 180 177 184 187 194 190 188 205 210 210 219 204 181 181 181 182 187 193 196 204
175 213 238 259 208 258 215 229 180 224 257 338 352 357 355 353 352 333 325 288 234 204 195 191 192 186 186 185 178 176 175 178 185 184 183 167 176 182 196 189 183 177 185 184 188 191 196 199 198
217 146 170 198 208 226 191 240 39 11 352 343 343 349 351 353 351 351 334 323 218 187 177 173 182 180 177 182 175 176 170 176 177 176 174 167 168 173 177 174 183 168 186 183 186 190 194 197 208
158 172 194 151 292 254 259 113 53 18 353 347 341 349 355 2 359 351 340 339 58 167 166 168 175 172 170 173 172 176 169 175 175 178 171 172 168 171 173 180 173 172 176 179 180 182 178 189 192
166 167 189 234 183 169 51 286 78 4 354 343 343 10 2 7 18 356 349 348 43 152 143 157 163 162 160 158 169 173 169 172 177 178 174 175 177 176 181 183 183 178 184 182 187 186 191 196 200